sat.trackr.live / text

‹ back to catalog

STARLINK-37836

NORAD 69425 · 2026-126F

PAYLOAD ACTIVE UNKNOWN

§ Identity

Operator
Country
US
Launch date
2026-06-07
Launch site
AFWTR
Launch vehicle
Mass (kg)
RCS (m²)

Purposes: comms

External: N2YO · Heavens-Above · Gunter

§ Orbital elements

Epoch: 2026-09-20T04:23:36.720096Z

Period
93.91 min
Inclination
97.2850°
Eccentricity
0.0001552
Mean motion
15.33449611 rev/d
Perigee alt
464.5 km
Apogee alt
466.6 km
Semi-major
6,843.7 km
B*
4.4427e-4
RAAN
124.3925°
Arg perigee
101.9084°
Mean anomaly
258.2333°
Rev number
1,747

§ Raw data

STARLINK-378361 69425U 26126F   26263.18306389  .00014297  00000+0  44427-3 0  99962 69425  97.2850 124.3925 0001552 101.9084 258.2333 15.33449611 17473

JSON: /api/v1/satellites/69425 · /tle

For live sub-satellite position, see the globe view (requires WebGL).

§ Visibility from observer

Set your observer location to see the next 7 days of passes ≥ 10°. The values pass through the URL so the page stays shareable.

No JS? Fill the form by hand. The geolocation button needs JavaScript.